Location: *
(48.2000°S, 179.2667°E)
Time: 10:08:02
(UTC+00:00)

Daily predictions for brighter satellites

Satellite Brightness Start Highest point End
(mag) Time Altitude Azimuth Time Altitude Azimuth Time Altitude Azimuth
Lacrosse 5 rocket 3.8 12:00:23 10° WSW 12:03:41 23° S 12:06:53 10° SE
ALOS 2 3.1 12:05:46 10° SSE 12:10:07 48° E 12:11:25 36° NE
Cosmos 1782 Rocket 4.5 12:10:59 29° WNW 12:12:40 41° WSW 12:16:57 10° S
Geosat 4.0 12:10:43 29° NE 12:13:22 84° ESE 12:18:29 10° SSW
NPP 4.3 12:12:24 20° NE 12:15:55 50° ESE 12:21:12 10° S
Meteor 1-21 Rocket 4.4 12:10:19 10° S 12:15:57 69° ESE 12:18:55 29° NNE
Terra 4.1 12:14:22 10° SSW 12:17:33 18° WSW 12:20:43 10° W
BREEZE-M DEB (TANK) 4.3 12:13:48 10° WSW 12:18:25 57° NNW 12:37:37 10° NE
Nadezhda 4 Rocket 4.2 12:15:18 29° NNW 12:18:38 65° WSW 12:25:01 10° S
Meteor 2-10 Rocket 4.3 12:17:12 29° NNE 12:19:58 52° E 12:25:40 10° SSE
Okean 2 Rocket 3.2 12:20:41 41° NNE 12:22:11 69° E 12:26:47 10° SSE
Cosmos 332 Rocket 3.9 12:20:16 36° NNW 12:22:17 78° WSW 12:27:16 10° SSE
Cosmos 1092 Rocket 4.0 12:21:32 32° N 12:24:43 85° E 12:31:07 10° S
Cosmos 1975 Rocket 4.1 12:22:21 10° SSW 12:26:20 32° W 12:27:29 28° WNW
Cosmos 1536 Rocket 3.6 12:23:04 10° S 12:27:33 78° E 12:29:12 39° NNE
Cosmos 1271 Rocket 3.0 12:27:01 44° NW 12:28:00 60° WSW 12:31:59 10° S
CENTAUR R/B 3.5 12:24:19 27° N 12:28:06 42° ENE 12:34:38 10° SE
SME Rocket 3.4 12:24:15 10° SSE 12:30:08 80° ENE 12:31:46 39° N
Cosmos 2150 Rocket 4.1 12:28:57 35° N 12:31:18 75° ENE 12:36:50 10° SSE
Resurs 1-4 Rocket 2.2 12:29:20 28° NNE 12:32:11 76° ESE 12:37:32 10° SSW
Okean 1 Rocket 3.8 12:32:16 30° NE 12:33:58 45° E 12:38:19 10° SSE
BlueWalker 3 4.2 12:39:11 13° ENE 12:39:11 13° ENE 12:40:30 10° E
ADEOS II 2.8 12:35:44 18° NE 12:39:31 51° ESE 12:44:41 10° S
Lacrosse 4 Rocket 1.4 12:39:18 10° SSW 12:43:23 73° SE 12:45:31 27° NE
ISS -3.9 12:50:56 58° NW 12:51:29 78° NNE 12:54:57 10° ESE
Cosmos 2369 Rocket 4.3 12:50:10 10° WSW 12:52:11 12° W 12:53:33 11° WNW
Cosmos 1408 2.5 12:49:47 10° S 12:53:23 78° E 12:54:23 45° NNE
Cosmos 292 Rocket 4.2 12:51:25 31° NNE 12:53:24 52° ENE 12:58:12 10° SSE
CZ-2D R/B 2.2 12:51:03 30° N 12:53:54 76° WNW 12:59:27 10° SSW
Genesis I 3.9 12:59:27 26° WNW 13:01:06 44° SW 13:04:40 10° SSE
Cosmos 2298 Rocket 4.4 13:02:15 27° NW 13:05:07 59° WSW 13:10:27 10° SSE
Cosmos 1953 3.0 13:04:40 31° WNW 13:06:00 42° WSW 13:09:52 10° S
Cosmos 2151 Rocket 4.1 13:04:18 31° NW 13:06:04 48° WSW 13:10:27 10° S
Cosmos 1455 Rocket 4.2 13:04:20 21° NE 13:06:49 37° E 13:11:00 10° SSE
Gblst 52 Del rocket 4.2 13:01:56 11° WNW 13:07:44 84° SSW 13:13:20 10° ESE
Cosmos 1269 Rocket 4.2 13:02:55 10° SSW 13:08:20 75° ESE 13:12:38 16° NNE
Cosmos 1300 3.4 13:07:40 32° WNW 13:08:50 42° WSW 13:12:32 10° S
AQUA 3.8 13:06:26 27° NNE 13:09:04 89° WNW 13:13:57 10° SSW
Cosmos 1833 Rocket 3.8 13:06:38 19° NNE 13:09:47 33° ENE 13:14:49 10° SE
ERS-2 3.4 13:10:25 24° WNW 13:10:43 24° W 13:13:46 10° SW
Cosmos 1656 3.7 13:08:01 10° SSW 13:13:43 88° ESE 13:18:39 14° NNE
Milstar 3 4.4 13:12:05 22° N 13:14:05 23° NNE 13:23:14 10° ENE
In-Cosmos 22 Rocket 4.3 13:10:54 10° S 13:16:41 79° ESE 13:20:44 19° NNE
Cosmos 1892 2.6 13:13:19 10° SSW 13:17:13 80° W 13:18:43 36° N
Cosmos 1125 Rocket 4.4 13:14:14 21° WNW 13:17:28 43° WSW 13:22:35 10° SSE
MSX 3.8 13:13:51 20° NNE 13:18:01 89° E 13:23:54 10° SSW
Lacrosse 5 1.9 13:22:16 28° NW 13:24:57 71° NE 13:30:07 10° ESE
Cosmos 1455 2.4 13:24:45 30° NNE 13:26:24 61° E 13:30:11 10° SSE
Cosmos 1417 Rocket 4.5 13:22:37 10° SSW 13:28:50 75° W 13:33:03 21° N
Cosmos 1340 Rocket 3.1 13:24:55 10° SSW 13:28:54 51° W 13:30:27 32° NNW
CZ-4 R/B 4.1 13:28:40 28° NNW 13:30:54 51° W 13:35:33 10° SSW
DNEPR-1 R/B 4.0 13:26:49 10° SW 13:31:24 44° WNW 13:33:11 28° N
IDEFIX/ARIANE 42P 2.7 13:29:13 25° N 13:32:15 60° W 13:37:34 10° SSW
Cosmos 1655 Rocket 4.2 13:28:04 20° N 13:32:42 70° E 13:39:04 10° SSE
Cosmos 2266 Rocket 4.2 13:28:49 21° N 13:33:21 78° E 13:39:51 10° SSE
Cosmos 1553 Rocket 4.4 13:27:44 10° SSW 13:33:57 53° W 13:37:53 23° NNW
Thor Agena Rocket 4.3 13:32:28 25° NW 13:34:43 36° W 13:39:36 10° SSW
S3M 4.0 13:28:48 10° S 13:35:10 81° W 13:39:50 19° N
Cosmos 1980 Rocket 3.7 13:32:12 10° SSW 13:37:32 38° SE 13:42:47 10° ENE
BREEZE-M DEB (TANK) 2.4 13:35:29 10° W 13:37:52 77° S 13:44:44 10° E
IRS-1D 4.0 13:33:22 10° NNE 13:38:39 65° ESE 13:44:02 10° S
Lacrosse 5 rocket 3.4 13:40:09 10° SW 13:43:35 28° SSE 13:46:53 10° ESE
ATLAS 5 CENTAUR R/B 3.3 13:38:40 10° SW 13:44:34 45° SE 13:49:22 10° ENE
Cosmos 1825 2.2 13:40:53 10° SSW 13:44:40 64° W 13:46:28 28° N
USA 81 4.4 13:39:31 10° SSW 13:44:41 50° W 13:47:46 23° NNW
USA 281 4.2 13:38:51 10° SE 13:45:01 39° ENE 13:50:34 13° N
ALOS 2 4.4 13:42:43 10° SSW 13:46:09 22° WSW 13:48:49 13° WNW
ALOS 3.4 13:42:49 10° NE 13:47:16 43° ESE 13:51:46 10° S
NOSS 3-3 (A) 3.8 13:46:44 10° SW 13:53:12 66° NW 13:58:46 10° NNE
NOSS 3-3 (C) 3.8 13:46:51 10° SW 13:53:19 67° NW 13:58:52 10° NNE
Cosmos 1238 Rocket 2.8 13:56:43 29° NW 13:57:51 44° WSW 14:01:03 10° S
Cosmos 1626 Rocket 4.0 13:55:58 10° S 14:00:26 63° ESE 14:04:51 10° NNE
Cosmos 614 Rocket 4.0 13:56:16 10° SSW 14:01:21 61° WNW 14:05:50 13° N
SL-4 R/B 2.5 14:00:10 25° NNW 14:01:38 37° NE 14:05:11 10° ESE
Cosmos 1140 Rocket 4.4 14:00:11 10° SSW 14:05:17 51° ESE 14:10:21 10° NE
Okean 1-7 Rocket 3.8 14:03:24 10° S 14:08:02 76° E 14:12:38 10° NNE
Cosmos 2082 Rocket 3.3 14:04:44 11° N 14:09:44 38° ENE 14:14:58 10° SE
Cosmos 1697 Rocket 2.6 14:05:10 10° SSW 14:10:50 73° WNW 14:16:28 10° NNE
Resurs 1-4 Rocket 3.8 14:10:25 14° WNW 14:12:36 17° W 14:16:01 10° SW
COSMOS 2406 3.9 14:08:38 14° N 14:13:29 50° ENE 14:19:03 10° SE
Cosmos 1892 Rocket 4.4 14:10:34 10° SSW 14:14:33 33° W 14:17:03 19° NW
NOSS 3-2 (A) 4.4 14:07:22 13° NW 14:15:08 65° SW 14:22:33 10° SE
BlueWalker 3 2.0 14:13:59 20° NW 14:16:33 66° NNE 14:20:31 10° ESE
CENTAUR R/B 3.2 14:11:28 12° WNW 14:18:44 60° SW 14:25:18 10° SE
ADEOS II 3.3 14:16:39 17° NW 14:19:27 25° W 14:23:51 10° SW
Lacrosse 4 Rocket 3.2 14:19:28 10° WSW 14:21:24 13° WNW 14:21:41 13° WNW
Cosmos 1544 Rocket 3.6 14:19:21 16° NNW 14:22:50 77° WSW 14:27:19 10° S
Cosmos 1633 3.5 14:20:56 10° SSW 14:23:59 29° W 14:25:45 19° NW
Iridium 2 4.1 14:20:53 10° N 14:24:27 59° E 14:28:09 10° SSE
USA 234 3.5 14:20:37 10° ESE 14:27:13 64° NE 14:33:03 14° NW
MOS 1 Rocket 4.0 14:22:35 10° S 14:27:51 56° WSW 14:32:23 14° NW
ISS -2.7 14:25:06 10° W 14:28:27 47° S 14:31:48 10° ESE
Cosmos 407 Rocket 3.8 14:24:52 10° SSW 14:30:11 71° ESE 14:35:30 10° NNE
FENGYUN 3A 3.8 14:27:05 10° N 14:32:26 59° W 14:37:50 10° SSW
EO 1 Del DPAF 3.7 14:29:34 10° NNE 14:32:31 47° ESE 14:35:30 10° S
CZ-2D R/B 4.2 14:32:45 10° WNW 14:34:50 12° W 14:36:57 10° WSW
Cosmos 2058 3.5 14:33:54 10° S 14:38:07 61° ESE 14:42:15 10° NNE
Cosmos 1023 Rocket 4.5 14:33:53 10° SSW 14:39:06 84° WNW 14:44:19 10° NNE
COSMOS 2455 3.4 14:35:33 10° SSW 14:41:35 64° SE 14:47:35 10° NE
Cosmos 1602 Rocket 3.5 14:37:21 10° SSW 14:41:48 77° W 14:46:11 10° N
Cosmos 2369 3.7 14:36:39 10° SSW 14:42:28 78° WNW 14:48:12 10° NNE
Cosmos 1758 Rocket 3.6 14:40:33 10° S 14:45:06 84° W 14:49:36 10° N
MOS 1-B Rocket 3.9 14:42:06 10° SSE 14:47:49 83° WSW 14:53:36 10° NNW
BREEZE-M DEB (TANK) 4.4 14:32:36 10° W 14:48:21 75° N 14:52:47 10° ENE
CZ-2C R/B 2.6 14:44:23 10° N 14:49:37 70° WNW 14:54:51 10° SSW
Cosmos 1484 Rocket 4.1 14:46:08 10° NE 14:49:55 44° ESE 14:53:47 10° S
IRS-1C 4.3 14:45:41 10° NNE 14:51:04 82° ESE 14:56:31 10° SSW
MOZ.5/SAFIR/RUBIN 5/SL-8 4.1 14:46:24 10° S 14:51:08 57° WSW 14:55:42 10° NNW
Helios 1B rocket 2.9 14:49:20 10° NNE 14:53:23 66° ESE 14:57:29 10° S
Cosmos 1833 Rocket 3.3 14:48:19 11° NW 14:53:33 47° SW 14:59:03 10° SSE
Cosmos 1818 3.9 14:52:54 10° NW 14:58:09 61° SW 15:03:33 10° SSE
NOSS 3-2 (C) 4.4 14:50:59 10° WNW 14:59:33 62° SW 15:06:56 10° SE
Cosmos 2251 Rocket 3.9 14:56:03 10° SSW 15:01:11 46° WNW 15:06:13 10° N
Cosmos 1455 4.4 15:00:31 10° W 15:02:13 13° WSW 15:03:56 10° SW
GEOS 3 Rocket 3.8 14:57:07 10° NNE 15:02:16 50° NW 15:07:24 10° SW
SAR-Lupe-2 4.4 14:59:00 10° NNW 15:02:19 34° W 15:05:41 10° SSW
PAYLOAD A 4.0 14:58:46 10° N 15:03:24 52° W 15:08:05 10° SSW
YAOGAN 6 3.3 15:03:18 10° NNE 15:06:55 60° ESE 15:10:36 10° S
Lacrosse 5 3.0 15:03:24 10° W 15:08:16 41° SSW 15:13:10 10° SE
USA 238 DEB 4.3 15:03:53 10° WNW 15:11:29 59° SW 15:18:40 10° SE
USA 238 4.3 15:03:59 10° WNW 15:11:35 60° SW 15:18:46 10° SE
Meteor 1-28 Rocket 3.5 15:09:50 10° SSE 15:13:40 68° ENE 15:17:27 10° N
UNK 4.0 15:12:25 10° SSE 15:17:12 74° ENE 15:21:53 10° N
Envisat 3.1 15:14:45 10° NNE 15:19:53 90° SE 15:25:05 10° SSW
Cosmos 1980 Rocket 2.6 15:16:15 10° SW 15:21:34 42° WNW 15:26:50 10° N
